Wind_Speed
7 8 9 10 11 11 11 11 10 9 9 9 10 12 14 13 12 11 13 15 16 18 19 19 19 20 21 22 24 24 23 21 19 18 17 17 18 19 20 22 24 26
6 7 8 9 9 10 10 10 9 8 8 8 10 12 13 13 13 14 15 17 18 20 20 20 20 21 22 23 23 22 21 20 19 19 20 21 22 24 26 27 29 30
7 7 7 7 7 8 8 8 8 7 8 8 10 11 13 14 16 17 17 18 19 20 20 20 21 22 23 23 23 22 21 21 21 22 23 25 26 27 28 29 29 28
7 8 7 7 7 6 7 7 7 8 9 10 11 13 15 17 19 20 19 18 19 19 20 21 22 23 23 23 23 23 22 22 23 24 25 27 28 28 28 26 26 25
8 9 9 8 7 7 7 7 7 9 10 11 13 15 16 18 20 20 18 18 18 19 21 22 23 24 24 24 23 23 22 23 24 25 27 27 27 26 25 25 24 24
9 9 9 9 8 7 8 7 8 10 12 13 15 16 18 19 20 19 17 17 18 20 22 24 24 25 24 23 22 22 23 24 26 26 26 25 25 24 24 24 24 24
10 9 10 10 10 9 9 9 10 12 14 15 17 18 19 20 19 18 17 18 20 22 24 25 24 24 22 22 22 23 25 26 25 25 24 24 24 24 23 24 24 24
10 10 9 10 10 11 11 11 13 15 16 18 19 20 20 19 18 18 18 19 22 24 24 24 23 22 21 22 24 25 25 24 24 23 24 24 23 23 24 24 24 24
10 10 10 11 11 12 13 14 15 16 17 19 20 20 19 18 17 17 19 21 23 23 23 22 21 21 22 24 24 24 23 22 23 23 23 23 23 23 24 23 23 23
10 10 11 12 13 14 15 16 17 18 18 19 20 19 17 16 16 17 20 22 22 21 21 20 20 21 23 23 22 21 21 22 22 22 22 22 23 22 22 23 23 24
11 11 11 12 14 15 17 18 19 20 19 19 18 16 15 15 16 19 20 20 20 20 19 19 21 22 22 21 20 20 21 21 21 21 21 21 21 22 22 24 25 26
12 12 11 13 16 17 18 20 20 20 19 17 15 14 14 15 18 19 19 19 19 19 19 20 21 21 20 19 19 20 20 20 20 20 21 20 21 22 23 25 26 26
14 14 13 15 17 18 19 20 19 18 16 14 12 13 14 17 18 18 18 18 18 18 19 20 20 19 18 18 19 19 19 19 20 20 20 20 21 23 24 25 26 26
14 15 16 16 17 18 19 18 17 15 14 12 12 14 16 17 17 17 17 17 17 18 18 19 18 18 18 18 18 18 19 20 20 20 20 21 22 23 25 26 26 26
14 16 18 18 18 18 17 16 15 13 11 11 12 15 16 16 16 16 16 16 17 17 17 17 17 17 17 17 18 19 20 20 21 21 21 22 23 24 25 26 27 27
15 17 19 19 18 17 15 14 12 10 10 11 14 15 15 15 15 15 15 16 16 16 16 16 16 16 16 17 18 19 19 20 21 21 22 24 24 25 26 26 27 27
16 18 19 18 16 14 13 11 9 9 11 13 14 14 14 14 14 14 14 15 15 15 15 15 16 16 16 17 18 18 19 20 21 22 23 24 25 26 27 28 28 28
17 19 18 16 14 13 11 9 8 10 12 13 13 13 13 13 13 13 13 13 14 14 15 15 16 16 16 17 17 18 19 20 21 23 24 24 25 26 27 28 29 29
18 18 16 15 13 10 8 8 9 11 11 11 11 11 12 11 11 12 12 13 13 13 14 15 15 15 16 16 17 18 19 21 22 23 24 25 25 27 27 28 30 30
18 17 15 13 11 8 8 9 10 10 10 10 10 10 11 11 11 12 12 12 13 13 13 14 14 15 15 16 17 18 19 21 22 22 23 24 26 26 27 28 29 30
17 16 13 11 8 7 8 8 9 9 9 9 9 10 10 10 11 11 12 12 13 13 13 13 14 15 15 16 17 18 20 21 21 22 23 24 25 26 26 27 28 29
16 14 11 8 7 8 8 8 8 8 8 8 9 10 10 10 11 11 12 12 12 12 12 13 14 15 16 17 18 19 20 21 21 22 24 24 25 25 26 26 27 29
14 11 8 7 7 7 7 7 7 7 7 8 9 10 10 10 11 11 11 11 11 11 12 13 15 15 16 17 18 19 20 20 21 22 23 24 25 26 26 25 26 28
11 8 7 6 6 6 6 6 6 6 7 9 10 10 10 10 10 10 9 9 10 12 13 14 15 15 16 17 18 19 20 21 22 22 23 24 25 25 25 25 25 27
9 7 6 6 6 6 5 5 4 6 8 9 10 9 9 9 9 9 9 9 11 13 13 14 15 16 17 18 19 20 20 21 22 22 23 24 25 25 26 26 26 27
7 6 7 6 6 5 3 3 4 6 9 9 9 8 8 8 8 8 9 10 11 12 13 14 15 16 17 18 19 20 21 21 22 23 24 25 26 26 27 28 28 27
Wind_Direction
360 13 17 22 30 36 38 41 44 47 47 41 27 13 1 351 341 334 334 334 333 332 332 332 331 331 332 333 334 333 332 332 331 332 331 329 328 327 325 324 322 321
332 350 7 13 20 28 31 35 38 40 36 23 8 358 346 337 332 330 328 328 329 329 329 329 329 330 331 331 332 331 330 328 327 327 327 326 326 325 324 323 322 320
314 327 349 0 8 18 23 25 28 24 12 359 348 339 333 330 329 328 325 323 324 326 326 327 328 329 329 330 330 328 327 326 326 327 326 326 325 324 323 322 322 322
306 310 321 338 347 359 10 14 12 358 346 336 328 325 325 325 326 326 324 320 320 323 325 326 327 328 328 328 328 327 326 326 326 326 326 325 324 324 325 326 327 328
297 300 306 317 328 337 346 352 346 334 327 322 319 319 320 320 322 322 319 316 318 323 325 326 326 327 328 328 328 327 326 326 327 327 326 327 329 331 333 334 333 333
289 294 301 307 313 321 325 323 318 314 312 312 313 314 314 315 317 316 313 314 320 323 325 326 326 326 327 328 327 327 328 329 329 330 332 335 338 338 338 337 336 336
293 294 300 304 298 295 302 305 301 300 302 304 305 306 308 311 311 310 312 317 321 323 324 325 325 327 328 328 329 330 331 333 334 337 340 342 342 341 340 341 341 341
301 297 298 303 294 282 284 290 291 292 296 297 299 300 303 305 306 308 313 318 321 323 324 326 327 328 329 330 332 333 335 338 341 344 345 344 345 345 345 346 345 343
295 297 294 294 292 281 276 280 284 288 292 294 296 297 299 300 302 308 314 318 321 322 324 326 327 329 331 333 335 337 341 345 347 347 347 347 348 349 348 349 348 348
279 288 288 285 286 281 275 275 279 283 289 294 294 292 293 296 303 311 316 318 321 323 325 327 329 332 335 337 340 344 348 349 349 349 350 351 351 351 351 352 354 356
279 283 279 275 276 277 275 274 276 280 287 290 287 286 290 299 308 314 317 320 322 325 327 329 333 336 339 343 346 349 350 350 350 351 351 351 351 352 355 357 358 359
281 284 279 275 274 274 275 275 277 279 282 281 278 283 294 305 313 316 318 322 324 327 330 333 337 341 344 347 348 350 350 350 350 351 351 353 354 356 358 359 360 360
271 280 283 281 276 274 273 275 276 274 271 272 278 291 303 311 315 318 320 323 326 329 333 337 342 345 345 346 348 349 350 349 350 352 353 356 357 358 359 358 359 360
264 272 278 279 276 273 271 271 269 266 265 273 288 302 310 315 317 320 322 325 328 333 338 343 346 345 343 346 349 350 350 350 351 353 355 358 359 359 358 358 359 359
263 268 271 273 272 269 267 264 261 260 267 284 300 310 314 317 319 322 324 327 332 338 343 346 346 343 346 350 351 351 351 351 353 355 357 359 0 360 359 359 360 358
263 268 268 266 265 262 257 254 253 261 283 301 309 314 316 319 322 323 326 331 337 343 347 347 347 347 352 354 353 352 352 353 355 357 359 0 1 1 1 1 0 358
260 264 262 259 256 251 245 246 258 282 301 308 312 315 318 321 324 325 331 337 343 348 349 349 351 353 356 357 355 353 353 356 358 358 360 1 1 1 1 1 0 359
258 259 254 249 243 237 239 255 280 298 306 309 311 317 322 325 327 331 338 344 348 351 351 353 355 356 358 357 355 356 357 358 0 360 0 1 2 3 1 360 359 359
256 252 244 238 231 233 250 276 294 301 305 309 313 321 328 331 334 339 344 349 351 353 354 356 357 357 358 358 357 359 1 1 1 1 0 1 2 3 1 359 359 358
248 241 233 228 228 244 273 288 298 303 306 310 318 329 336 338 341 343 347 350 352 354 355 356 357 358 359 360 1 2 3 3 2 0 360 1 2 1 360 359 359 357
236 227 222 225 241 269 285 294 301 303 307 315 328 339 343 342 343 344 347 350 351 353 355 355 358 0 0 1 3 4 5 4 1 0 0 0 1 1 360 359 357 356
223 219 221 238 265 281 289 298 301 303 311 325 339 347 346 343 343 345 347 349 350 351 354 357 1 2 3 4 5 5 6 4 1 1 0 360 0 1 1 359 357 356
214 218 235 261 279 288 295 298 299 307 322 337 348 351 346 342 342 343 344 346 348 351 355 1 3 3 4 5 6 6 5 3 2 2 1 0 2 2 2 1 360 358
211 228 256 278 288 291 294 297 303 320 337 348 353 350 343 339 338 339 342 346 350 355 0 3 2 3 5 6 6 6 5 4 3 2 1 1 3 3 2 3 4 2
220 246 272 285 291 291 292 300 321 340 348 352 352 346 338 334 334 338 345 351 355 359 3 3 2 3 5 6 6 5 4 4 3 1 2 2 2 2 3 5 7 4
234 259 275 281 286 292 298 316 340 351 353 351 346 338 332 332 335 342 349 355 358 360 2 2 3 5 6 6 5 3 3 3 2 2 3 3 2 2 3 4 5 3
Height
1559 1559 1559 1558 1558 1558 1557 1557 1557 1556 1556 1555 1554 1554 1553 1551 1550 1549 1548 1546 1545 1544 1542 1541 1540 1538 1537 1535 1533 1532 1530 1528 1527 1525 1524 1523 1521 1520 1518 1516 1515 1513
1559 1559 1559 1559 1558 1558 1558 1558 1557 1557 1556 1555 1555 1554 1552 1551 1550 1549 1547 1546 1545 1543 1542 1541 1539 1538 1536 1534 1533 1531 1530 1528 1527 1525 1524 1522 1520 1519 1517 1515 1513 1511
1559 1559 1559 1559 1558 1558 1558 1558 1557 1557 1556 1555 1554 1553 1552 1551 1549 1548 1547 1545 1544 1543 1542 1540 1539 1537 1536 1534 1532 1531 1529 1528 1526 1524 1523 1521 1519 1518 1516 1514 1512 1510
1558 1559 1559 1558 1558 1558 1558 1558 1557 1557 1556 1555 1554 1553 1552 1550 1549 1548 1546 1545 1544 1543 1541 1540 1538 1537 1535 1533 1532 1530 1529 1527 1525 1524 1522 1520 1518 1517 1514 1512 1510 1508
1558 1558 1558 1558 1558 1558 1558 1557 1557 1556 1555 1554 1553 1552 1551 1550 1549 1547 1546 1545 1543 1542 1541 1539 1538 1536 1534 1533 1531 1530 1528 1527 1525 1523 1521 1519 1517 1515 1513 1510 1508 1506
1557 1558 1558 1558 1558 1558 1558 1557 1556 1556 1554 1554 1553 1552 1551 1549 1548 1547 1545 1544 1543 1542 1540 1538 1537 1535 1534 1532 1530 1529 1528 1526 1524 1522 1520 1518 1515 1513 1511 1509 1507 1505
1557 1557 1557 1557 1557 1557 1557 1556 1556 1555 1554 1553 1552 1551 1550 1548 1547 1546 1545 1544 1543 1541 1540 1538 1536 1535 1533 1532 1530 1528 1526 1525 1523 1521 1518 1516 1514 1512 1510 1508 1505 1503
1556 1557 1557 1557 1557 1556 1556 1556 1555 1554 1553 1552 1551 1550 1549 1548 1546 1546 1545 1544 1542 1541 1539 1537 1536 1534 1533 1531 1529 1527 1525 1523 1521 1519 1517 1515 1513 1511 1509 1506 1504 1502
1556 1556 1556 1556 1556 1555 1555 1555 1554 1553 1553 1552 1551 1550 1548 1547 1546 1545 1544 1543 1542 1540 1538 1537 1535 1534 1532 1530 1528 1526 1524 1522 1520 1518 1516 1514 1512 1510 1508 1506 1504 1501
1555 1555 1555 1555 1555 1554 1554 1554 1553 1552 1552 1551 1550 1549 1548 1547 1546 1545 1544 1542 1541 1539 1538 1536 1535 1533 1531 1529 1527 1525 1523 1521 1520 1518 1516 1514 1512 1510 1508 1505 1503 1500
1554 1554 1554 1554 1554 1553 1553 1552 1552 1551 1551 1550 1549 1548 1547 1546 1545 1544 1543 1541 1540 1538 1537 1536 1534 1532 1530 1528 1526 1525 1523 1521 1519 1517 1515 1513 1511 1509 1507 1504 1502 1499
1553 1553 1553 1553 1553 1552 1551 1551 1551 1551 1550 1549 1548 1547 1546 1546 1544 1543 1542 1540 1539 1538 1536 1535 1533 1531 1529 1528 1526 1524 1523 1521 1519 1517 1515 1513 1511 1509 1506 1503 1501 1498
1552 1552 1552 1552 1551 1551 1550 1550 1550 1549 1549 1548 1548 1547 1546 1545 1544 1542 1541 1540 1539 1537 1536 1534 1532 1531 1529 1528 1526 1524 1523 1521 1519 1517 1515 1513 1510 1508 1505 1503 1500 1498
1551 1551 1551 1551 1550 1550 1549 1549 1549 1548 1548 1548 1548 1547 1546 1544 1543 1542 1541 1540 1538 1537 1535 1534 1532 1531 1529 1527 1526 1524 1522 1520 1518 1517 1515 1512 1510 1507 1505 1503 1500 1497
1550 1550 1550 1550 1549 1549 1549 1548 1548 1548 1548 1548 1547 1546 1545 1544 1543 1542 1540 1539 1538 1536 1535 1533 1532 1531 1529 1527 1525 1523 1521 1520 1518 1516 1514 1511 1509 1507 1504 1502 1499 1497
1549 1549 1549 1549 1548 1548 1548 1548 1548 1548 1548 1547 1546 1545 1544 1543 1542 1541 1540 1539 1537 1536 1535 1533 1532 1530 1528 1527 1525 1523 1521 1519 1517 1515 1512 1510 1508 1506 1503 1501 1498 1496
1547 1548 1548 1547 1547 1548 1548 1548 1548 1548 1547 1547 1546 1545 1544 1543 1542 1541 1539 1538 1537 1535 1534 1533 1531 1530 1528 1526 1524 1522 1521 1518 1516 1514 1511 1509 1507 1504 1502 1500 1497 1495
1546 1546 1547 1547 1547 1547 1547 1548 1548 1547 1547 1546 1545 1544 1543 1543 1542 1540 1539 1538 1536 1535 1534 1532 1531 1529 1527 1526 1524 1522 1520 1518 1515 1513 1511 1509 1506 1504 1501 1499 1496 1493
1545 1545 1546 1546 1546 1547 1547 1547 1547 1546 1546 1545 1544 1544 1543 1542 1541 1540 1539 1537 1536 1535 1534 1532 1531 1529 1527 1526 1524 1522 1520 1517 1515 1513 1510 1508 1506 1503 1501 1498 1495 1492
1544 1544 1545 1546 1546 1547 1547 1547 1546 1546 1545 1544 1544 1543 1542 1541 1540 1539 1538 1537 1536 1535 1534 1532 1531 1529 1527 1525 1523 1521 1519 1517 1515 1513 1510 1508 1505 1503 1500 1497 1494 1491
1543 1544 1545 1545 1546 1546 1546 1546 1545 1545 1544 1544 1543 1542 1541 1540 1539 1539 1538 1537 1536 1535 1534 1532 1530 1529 1527 1525 1523 1521 1519 1517 1515 1513 1510 1508 1505 1503 1500 1497 1494 1491
1542 1543 1544 1545 1546 1546 1545 1545 1545 1544 1543 1543 1542 1541 1540 1539 1539 1538 1537 1536 1535 1534 1533 1532 1530 1528 1527 1525 1523 1521 1519 1517 1515 1513 1510 1508 1505 1502 1500 1497 1494 1491
1542 1543 1544 1545 1545 1545 1544 1544 1544 1543 1542 1542 1541 1540 1539 1539 1538 1537 1537 1536 1535 1534 1533 1531 1529 1528 1526 1525 1523 1521 1519 1517 1515 1513 1510 1508 1505 1502 1500 1497 1494 1491
1542 1543 1544 1544 1544 1544 1544 1543 1543 1542 1541 1541 1540 1539 1539 1538 1537 1537 1536 1536 1535 1533 1532 1530 1529 1527 1526 1524 1523 1521 1519 1517 1515 1513 1510 1508 1505 1502 1500 1498 1495 1492
1542 1543 1543 1543 1543 1543 1543 1542 1542 1541 1540 1539 1539 1539 1538 1538 1537 1536 1536 1535 1533 1532 1531 1529 1528 1527 1525 1524 1522 1520 1519 1516 1514 1512 1510 1507 1505 1502 1500 1497 1494 1492
1541 1542 1542 1542 1542 1542 1541 1541 1541 1540 1539 1539 1538 1538 1538 1537 1537 1536 1535 1534 1533 1531 1530 1529 1528 1526 1525 1523 1521 1520 1518 1516 1514 1512 1509 1506 1504 1501 1498 1496 1494 1492